Tracking 28052 objects as of 25-Sep-2023
HD Live streaming from Space Station
objects crossing your sky now

COSMOS 1375 DEB

Track COSMOS 1375 DEB now!
10-day predictions


NORAD ID: 18415
Int'l Code: 1982-055BE
Perigee: 944.0 km
Apogee: 1,059.7 km
Inclination: 65.8 °
Period: 105.0 minutes
Semi major axis: 7372 km
RCS: 0.0876 m2 (small)
Launch date: June 6, 1982
Source: Commonwealth of Independent States (former USSR) (CIS)
Launch site: PLESETSK MISSILE AND SPACE COMPLEX (PKMTR)

Note: This is SATELLITE DEBRIS
Your satellite tracking list
Your tracking list is empty




NASA's NSSDC Master Catalog

Two Line Element Set (TLE):
1 18415U 82055BE  23267.14183066  .00000656  00000-0  80021-3 0  9999
2 18415  65.8277 157.3598 0078495 237.2161 275.3211 13.71362045890267
Source of the keplerian elements: AFSPC